STARLINK-5657, 55342

Orbit data source: Space-Track

STARLINK-5657, 55342 is a payload satellite owned by SpaceX/Seattle (US) in LEO that was launched on Thu, 26 Jan 2023 UTC via an FALCON 9 launch vehicle from the Air Force Eastern Test Range (AFETR). Payload-class satellites include a variety of spacecraft equipped with specific instruments for various scientific and technological missions. These include communications satellites like Starlink; space stations such as the ISS; scientific satellites like the Hubble; Earth observation satellites from companies like Planet Labs, Umbra, and HawkEye 360; GPS; miniature CubeSats for education and research; and military/defense satellites.

Loading next visibility...
Identifier
55342, 2023-013M
Orbit
LEO
Country
Flag of USUS
Related business
Manufacturer
SpaceX/Seattle
Mission
Operational Commercial Communications
Bus & Motor
STARLINK, Unknown motor
Mass
305 kg wet, ~290 kg dry
Launch date (UTC)
2023-01-26 (3 years ago)
Launch vehicle
FALCON 9
Launch site
Air Force Eastern Test Range (AFETR)
Object type
Payload
Rocket body
Debris
Shape & HBR
Box + 1 Pan, 10.1 m
Radar Cross Section
13.562 m², Large (>1 m²)

Expand to show TLE details & history
Last TLE update: 1 day ago

TLE from 1 day ago
0 STARLINK-5657
1 55342U 23013M   25348.43814723  .00000128  00000-0  24571-4 0  9996
2 55342  43.0063  43.7126 0001696 273.3443  86.7205 15.02536622158888
Epoch: 2025-12-14T10:30Z
TLE epoch observation values (Epoch: 2025-12-14T10:30:55.920Z)
Latitude
-0.00005°
Longitude
162.62848°
Altitude
558.789 km
Speed
7.584 km/s
True Right ascension
02h 54m 51s
True Declination
0° 00' 00"
Sunlit
Object was in full shadow at epoch
Visualization orbit readout
Latitude
Unknown
Longitude
Unknown
Altitude
Unknown
Speed
Unknown
Apparent Right ascension
Unknown
Apparent Declination
Unknown
Sunlit
N/A
Visualization observer readout
Local Sidereal Time
15:08:17
Azimuth
Unknown
Elevation
Unknown
Doppler factor
Unknown
Orbital elements
Apogee altitude
562.177 km
Perigee altitude
559.824 km
Semi-major axis
6,939.138 km
Eccentricity
0.00017
Inclination
43.0063°
RAAN
43.7126°
Arg. of periapsis
273.3443°
True anomaly
86.7399°
Mean anomaly
86.7205°
Eccentric anomaly
86.7302°
Mean motion
3.75478 °/min
Orbital period
95.88 mins
BSTAR
0.000024571
Loading maneuver chart data...
Computing Atmospheric mass density...
Loading historical data...
Loading historical data...
Loading historical data...
Loading historical data...
Loading historical data...
Loading historical data...
Loading historical data...

Documentation

Showing up to 5 results
|